スコッティ彗星

202P/Scotti (2024)

English version
Home page
Updated on March 24, 2025

---------------------------------------------------------------------

・ プロフィール

・ 写真集

・ 軌道要素

Epoch 2025 May 5.0 TT = JDT 2460800.5
T 2024 May 17.30285 TT                                  Pike
q   3.0699030            (2000.0)            P               Q
n   0.11875358     Peri.  274.49602     -0.03138667     -0.99950577
a   4.0992547      Node   177.30072     +0.93121283     -0.02988176
e   0.2511070      Incl.    2.14178     +0.36312194     -0.00976223
P   8.30
From 459 observations 2001 Dec. 10-2025 Feb. 22, mean residual 0".7.
     Nongravitational parameters A1 = +0.07, A2 = +0.0154.

・ 光度変化

        m1 = 13.0 + 5 logΔ + 10.0 log r

---------------------------------------------------------------------

軌道要素はM.P.E.C. 2025-D254に掲載されたものです。
光度グラフはComet for Windowsで作成したものです。

---------------------------------------------------------------------

Copyright(C) Seiichi Yoshida (comet@aerith.net). All rights reserved.